Lake Charles Regional, LA

10:04 AM CDT on May 25, 2018 (GMT -0500)
Lake Charles Regional

Weather History for KLCH - June, 2013

Change the Weather History Date:

Wednesday, June 5, 2013

  Actual Average Record
Temperature  
Mean Temperature 85 °F 79 °F  
Max Temperature 94 °F 88 °F 98 °F (1911)
Min Temperature 76 °F 71 °F 56 °F (1903)
Degree Days  
Heating Degree Days 0 0  
Month to date heating degree days 0 0  
Since 1 June heating degree days 0 0  
Since 1 July heating degree days 1267 1490  
Cooling Degree Days 20 14  
Month to date cooling degree days 89 42  
Year to date cooling degree days 574 580  
Since 1 June cooling degree days 89 42  
Growing Degree Days 34 (Base 50)    
Moisture  
Dew Point 75 °F    
Average Humidity 72    
Maximum Humidity 94    
Minimum Humidity 49    
Precipitation  
Precipitation 0.00 in 0.20 in 5.47 in (1950)
Month to date precipitation 0.59 0.60  
Year to date precipitation 30.11 21.48  
Snow  
Snow 0.00 in 0.00 in 0.00 in ()
Month to date snowfall 0.0 0.0  
Since 1 June snowfall 0.0 0.0  
Since 1 July snowfall 0.0 0.1  
Snow Depth 0.00 in    
Sea Level Pressure  
Sea Level Pressure 29.87 in    
Wind  
Wind Speed 5 mph (East)    
Max Wind Speed 13 mph    
Max Gust Speed 16 mph    
Visibility 10 miles    
Events      
T = Trace of Precipitation, MM = Missing Value Source: NWS Daily Summary

Daily Weather History Graph

Daily Weather History Graph

Search for Another Location

Airport or City:

Astronomy

Jun. 05, 2013 Rise Set
Actual Time 6:11 AM CDT 8:11 PM CDT
Civil Twilight 5:43 AM CDT 8:39 PM CDT
Nautical Twilight 5:10 AM CDT 9:12 PM CDT
Astronomical Twilight 4:35 AM CDT 9:47 PM CDT
Moon 4:05 AM CDT (6/5) 5:46 PM CDT (6/5)
Length of Visible Light 14h 55m
Length of Day
14h 00m
Waning Crescent, 8% of the Moon is Illuminated
Jun 5
Waning Crescent
Jun 8
New
Jun 16
First Quarter
Jun 23
Full
Jun 29
Last Quarter

Hourly Weather History & Observations

Time (CDT) Temp. Heat Index Dew Point Humidity Pressure Visibility Wind Dir Wind Speed Gust Speed Precip Events Conditions
12:53 AM 77.0 °F - 75.0 °F 94% 29.92 in 10.0 mi Calm Calm - N/A   Partly Cloudy
1:53 AM 77.0 °F - 73.9 °F 90% 29.89 in 9.0 mi Calm Calm - N/A   Clear
2:53 AM 77.0 °F - 73.9 °F 90% 29.88 in 10.0 mi Calm Calm - N/A   Mostly Cloudy
3:07 AM 77.0 °F - 73.4 °F 89% 29.86 in 10.0 mi Calm Calm - N/A   Mostly Cloudy
3:53 AM 78.1 °F - 75.0 °F 90% 29.88 in 10.0 mi Calm Calm - N/A   Mostly Cloudy
4:13 AM 77.0 °F - 75.2 °F 94% 29.85 in 10.0 mi Calm Calm - N/A   Scattered Clouds
4:53 AM 77.0 °F - 73.9 °F 90% 29.88 in 9.0 mi Calm Calm - N/A   Mostly Cloudy
5:20 AM 78.8 °F - 75.2 °F 89% 29.86 in 10.0 mi Calm Calm - N/A   Mostly Cloudy
5:53 AM 78.1 °F - 75.0 °F 90% 29.88 in 10.0 mi Calm Calm - N/A   Overcast
6:53 AM 78.1 °F - 75.0 °F 90% 29.89 in 9.0 mi NE 4.6 mph - N/A   Overcast
7:00 AM 78.8 °F - 75.2 °F 89% 29.87 in 9.0 mi NE 4.6 mph - N/A   Clear
7:53 AM 81.0 °F 87.3 °F 75.9 °F 85% 29.91 in 9.0 mi NE 6.9 mph - N/A   Clear
8:53 AM 82.9 °F 91.8 °F 77.0 °F 82% 29.91 in 10.0 mi ENE 8.1 mph - N/A   Mostly Cloudy
9:09 AM 84.2 °F 92.3 °F 75.2 °F 74% 29.89 in 10.0 mi ENE 8.1 mph - N/A   Scattered Clouds
9:53 AM 84.9 °F 93.3 °F 75.0 °F 72% 29.92 in 10.0 mi ENE 8.1 mph - N/A   Scattered Clouds
10:53 AM 88.0 °F 97.5 °F 75.0 °F 65% 29.92 in 10.0 mi North 9.2 mph - N/A   Mostly Cloudy
11:04 AM 87.8 °F 97.6 °F 75.2 °F 66% 29.90 in 10.0 mi NE 6.9 mph - N/A   Mostly Cloudy
11:11 AM 87.8 °F 95.6 °F 73.4 °F 62% 29.90 in 10.0 mi NE 8.1 mph - N/A   Mostly Cloudy
11:53 AM 89.1 °F 99.1 °F 75.0 °F 63% 29.92 in 10.0 mi NE 6.9 mph - N/A   Mostly Cloudy
12:00 PM 89.6 °F 98.2 °F 73.4 °F 59% 29.90 in 10.0 mi East 9.2 mph - N/A   Mostly Cloudy
12:53 PM 91.0 °F 99.3 °F 73.0 °F 55% 29.91 in 10.0 mi East 11.5 mph - N/A   Partly Cloudy
1:53 PM 91.9 °F 100.7 °F 73.0 °F 54% 29.89 in 10.0 mi ENE 9.2 mph - N/A   Scattered Clouds
2:53 PM 93.9 °F 100.8 °F 71.1 °F 47% 29.87 in 10.0 mi East 5.8 mph - N/A   Partly Cloudy
3:53 PM 93.0 °F 100.7 °F 72.0 °F 50% 29.85 in 10.0 mi East 6.9 mph - N/A   Partly Cloudy
4:53 PM 90.0 °F 101.3 °F 75.9 °F 63% 29.83 in 10.0 mi South 10.4 mph - N/A   Scattered Clouds
5:53 PM 89.1 °F 100.2 °F 75.9 °F 65% 29.82 in 10.0 mi Variable 6.9 mph - N/A   Clear
6:53 PM 87.1 °F 96.3 °F 75.0 °F 67% 29.80 in 10.0 mi South 5.8 mph - N/A   Clear
7:53 PM 84.9 °F 93.3 °F 75.0 °F 72% 29.81 in 10.0 mi South 6.9 mph - N/A   Clear
8:53 PM 82.0 °F 88.6 °F 75.0 °F 79% 29.81 in 10.0 mi South 4.6 mph - N/A   Clear
9:53 PM 81.0 °F 87.3 °F 75.9 °F 85% 29.82 in 10.0 mi South 3.5 mph - N/A   Clear
10:53 PM 81.0 °F 87.3 °F 75.9 °F 85% 29.83 in 10.0 mi SSE 6.9 mph - N/A   Clear
11:53 PM 79.0 °F - 75.9 °F 90% 29.87 in 10.0 mi Calm Calm - N/A   Mostly Cloudy